Voltar ao catálogo

STARLINK-5910

AtivoComunicaçõesVLEO
NORAD 56000·PAYLOAD·🇺🇸 United States

Lançado Mar 24, 2023 de Cape Canaveral Space Force Station

Loading…

Próximas Passagens (próximas 24 horas)

TLE

AtualizadoSource: CelesTrak SupGP

Época: Sep 14, 2026, 22:26 UTC

1 56000C 23042Q   26257.93520833  .00048201  00000+0  17458-2 0  2575
2 56000  43.0041  70.7819 0001846 276.9480  52.8328 15.27553404    17

Acompanhe STARLINK-5910 em tempo real com AllMySat

Download on the App Store